#timestamp,LO_Frequency,Hit,StdDev 
1642471215.7,286046996.8,N
1642471235.5,286047000.4,N
1642471255.4,286047002.5,N
1642471275.2,286047001.5,N
1642471295.0,286046999.8,N
1642471296.0,286046999.8,N
1642471315.8,286047001.2,N
1642471335.6,286046998.4,N
1642471355.5,286046996.7,N
1642471375.3,286046996.5,N
1642471395.1,286046998.6,N
1642471415.9,286047000.9,N
1642471435.7,286047002.5,N
1642471455.5,286047000.9,N
1642471475.4,286047000.9,N
1642471495.2,286046998.4,N
1642471515.1,286046999.2,N
1642471516.0,286046999.2,N
1642471535.8,286047001.2,N
1642471555.6,286046998.7,N
1642471575.5,286046996.7,N
1642471595.3,286046996.8,N
1642471615.1,286046996.6,N
1642471635.9,286046997.6,N
1642471655.7,286046995.1,N
1642471675.6,286046995.2,N
1642471695.4,286046997.6,N
1642471715.2,286046996.1,N
1642471735.1,286046993.8,N
1642471736.0,286046993.8,N
1642471755.8,286046996.4,N
1642471775.6,286046995.3,N
1642471795.5,286046995.0,N
1642471815.3,286046995.0,N
1642471835.2,286046997.6,N
1642471855.9,286046995.2,N
1642471875.7,286046997.6,N
1642471895.6,286046995.8,N
1642471915.4,286046998.0,N
1642471935.2,286046995.7,N
1642471955.1,286046997.1,N
1642471956.0,286046997.1,N
1642471975.8,286046998.7,N
1642471995.7,286046998.8,N
1642472015.5,286046999.2,N
1642472035.3,286046997.3,N
1642472055.2,286046997.7,N
1642472075.0,286046995.4,N
1642472075.9,286046995.4,N
1642472095.7,286046997.3,N
1642472115.6,286046994.9,Y
1642472135.4,286047001.2,P
1642472155.3,286046999.3,N
1642472175.1,286046998.2,N
1642472195.8,286047000.6,N
1642472215.7,286046999.7,N
1642472235.5,286047002.5,N
1642472255.3,286047001.7,N
1642472275.2,286047001.3,N
1642472295.0,286047001.8,N
1642472295.9,286047001.8,N
1642472315.8,286047003.0,N
1642472335.6,286047003.6,N
1642472355.4,286047002.0,N
1642472375.3,286047001.3,N
1642472395.1,286047006.0,Y
1642472415.9,286047002.1,P
1642472435.7,286047003.7,P
1642472455.5,286047001.7,N
1642472475.4,286047003.8,Y
1642472495.2,286046998.9,P
1642472515.0,286046998.9,N
1642472515.9,286046998.9,N
1642472535.8,286046999.3,N
1642472555.6,286046997.2,N
1642472575.5,286046997.9,N
1642472595.3,286046998.0,N
1642472615.1,286046995.8,Y
1642472635.9,286046994.9,P
1642472655.7,286047001.2,N
1642472675.5,286046998.5,N
1642472695.4,286047000.8,N
1642472715.2,286046998.3,N
1642472735.1,286046999.2,N
1642472736.0,286046999.2,N
1642472755.8,286046996.8,N
1642472775.6,286046998.9,N
1642472795.5,286046996.7,N
1642472815.3,286046996.6,N
1642472835.1,286046997.8,N
1642472855.9,286046998.3,N
1642472875.7,286047000.6,N
1642472895.6,286047000.9,N
1642472915.4,286046998.5,N
1642472935.2,286047000.1,N
1642472955.1,286047002.5,N
1642472956.0,286047002.5,N
1642472975.8,286047000.9,N
1642472995.6,286046999.9,N
1642473015.5,286047000.5,N
1642473035.3,286046999.9,N
1642473055.2,286046998.7,N
1642473075.9,286046999.0,N
1642473095.7,286046998.4,N
1642473115.6,286047000.4,N
1642473135.4,286047002.4,N
1642473155.2,286046998.4,N
1642473175.1,286046999.0,N
1642473176.0,286046999.0,N
1642473195.8,286047001.1,N
1642473215.7,286047000.2,N
1642473235.5,286047004.3,N
1642473255.3,286047001.8,N
1642473275.2,286047002.8,N
1642473295.0,286047000.2,N
1642473295.9,286047000.2,N
1642473315.7,286047001.1,N
1642473335.6,286047000.8,N
1642473355.4,286046999.5,N
1642473375.3,286046998.2,N
1642473395.1,286047000.2,N
1642473396.0,286047000.2,N
1642473415.8,286047002.8,N
1642473435.7,286047002.7,N
1642473455.5,286047004.3,N
1642473475.3,286047001.6,N
1642473495.2,286047002.4,N
1642473515.0,286046999.9,N
1642473515.9,286046999.9,N
1642473535.8,286047000.5,N
1642473555.6,286046998.4,N
1642473575.4,286047000.8,N
1642473595.3,286047001.6,N
1642473615.1,286047002.6,N
1642473635.8,286047002.0,N
1642473655.7,286047003.2,N
1642473675.5,286047003.1,N
1642473695.4,286047003.4,N
1642473715.2,286047002.5,N
1642473735.0,286047001.6,N
1642473735.9,286047001.6,N
1642473755.8,286047005.5,Y
1642473775.6,286047002.1,P
1642473795.5,286047002.6,P
1642473815.3,286047002.0,P
1642473835.1,286047001.9,Y
1642473855.9,286046998.8,P
1642473875.7,286046999.6,N
1642473895.5,286046999.5,N
1642473915.4,286046999.1,N
1642473935.2,286046998.2,N
1642473955.1,286047000.3,N
1642473956.0,286047000.3,N
1642473975.8,286047001.9,N
1642473995.6,286047004.2,Y
1642474015.5,286047005.7,P
1642474035.3,286047005.0,N
1642474055.2,286047005.6,N
1642474075.9,286047007.1,N
1642474095.7,286047004.7,N
1642474115.6,286047005.9,N
1642474135.4,286047005.8,N
1642474155.3,286047002.2,N
1642474175.1,286047001.3,N
1642474176.0,286047001.3,N
1642474195.8,286047001.9,N
1642474215.7,286047002.7,N
1642474235.5,286047003.2,N
1642474255.3,286047005.2,N
1642474275.2,286047005.8,N
1642474295.0,286047003.2,N
1642474295.9,286047003.2,N
1642474315.8,286047003.4,N
1642474335.6,286047003.4,N
1642474355.4,286047004.0,N
1642474375.3,286047001.6,N
1642474395.1,286047001.9,N
1642474415.8,286047000.1,N
1642474435.7,286047000.9,N
1642474455.5,286047002.4,N
1642474475.4,286047002.1,N
1642474495.2,286047003.6,N
1642474515.0,286047002.9,N
1642474515.9,286047002.9,N
1642474535.8,286047003.8,N
1642474555.6,286047004.1,N
1642474575.4,286047004.2,N
1642474595.3,286047001.3,N
1642474615.1,286047001.3,N
1642474635.9,286047002.9,N
1642474655.7,286047005.6,Y
1642474675.5,286047002.5,P
1642474695.4,286047000.3,N
1642474715.2,286047002.2,N
1642474735.0,286047002.7,N
1642474735.9,286047002.7,N
1642474755.8,286047001.9,N
1642474775.6,286047000.0,N
1642474795.5,286047000.4,N
